www.pogodaiklimat.ru

Архив погоды в Ашхабаде (город Ашхабад, Туркменистан)

Время
(UTC), дата
18 9.05
21 9.05
00 10.05
03 10.05
06 10.05
09 10.05
12 10.05
15 10.05
18 10.05
21 10.05
00 11.05
03 11.05
06 11.05
09 11.05
12 11.05
15 11.05
18 11.05
21 11.05
00 12.05
03 12.05
06 12.05
09 12.05
12 12.05
15 12.05
18 12.05
21 12.05
00 13.05
03 13.05
06 13.05
09 13.05
12 13.05
15 13.05
18 13.05
21 13.05
00 14.05
03 14.05
06 14.05
09 14.05
12 14.05
15 14.05
18 14.05
21 14.05
00 15.05
03 15.05
06 15.05
09 15.05
12 15.05
15 15.05
18 15.05
21 15.05
00 16.05
03 16.05
06 16.05
09 16.05
12 16.05
15 16.05
Ветер
(напр.,м/с)
Видим. Явления Облачность Т
(С)
Тd
(С)
f
(%)
Тe
(С)
Тes
(С)
Комфортность P
(гПа)
Po
(гПа)
Тmin
(С)
Tmax
(С)
R
(мм)
R24
(мм)
S
(см)
З 4 10 км {ливн. дождь} 6/3 1500 м
[Sc Ac und]
+19.0 +12.4 66 +20 +20 тепло 1015.0 990.4 +20.2 2
З 3 10 км 8/3 1500 м
[Sc Ac und]
+17.8 +11.4 66 +18 +18 тепло 1014.6 990.1
СЗ 3 10 км 9/9 1500 м
[Sc]
+16.0 +8.3 60 +16 +16 по сезону 1015.9 991.2
СЗ 3 10 км 9/9 1500 м
[Cb cap]
+15.2 +6.1 55 +15 +15 холодно 1017.5 992.7 +15.0
СЗ 2 10 км 10/10 1500 м
[Sc]
+17.2 +6.2 48 +18 +18 холодно 1018.5 993.8 +15.0
ЮВ 4 10 км 9/8 1500 м
[Sc Ac trans]
+20.6 +5.8 38 +22 +23 комфорт 1017.0 992.5
ЮВ 4 10 км 9/8 1500 м
[Cb cap Ac und]
+22.4 +7.2 37 +23 +24 комфорт 1015.5 991.4
В 6 10 км гроза, ливневой дождь 9/8 1500 м
[Cb cap Ac und]
+20.0 +10.2 53 +21 +21 комфорт 1016.8 992.5 +22.4 0.0
В 2 10 км {гроза, ливн. дождь} 8/5 1500 м
[Cb cap Ac trans]
+18.0 +12.0 68 +19 +19 по сезону 1017.4 992.9 +22.4 0.0
З 3 10 км слаб. ливневой дождь {гроза} 10/6 1500 м
[Cb cap Ac und]
+16.4 +13.0 80 +16 +16 по сезону 1017.2 992.6
В 3 10 км {гроза, ливн. дождь} 10/9 1500 м
[Cb cap Ac und]
+16.2 +13.4 83 +16 +16 по сезону 1017.5 992.9
СЗ 1 10 км 10/10 1500 м
[Cb cap]
+16.4 +16.1 98 +17 +17 прохладно 1017.8 993.1 +15.2 0.0
В 5 10 км 4/3 1000 м
[Sc Ac trans]
+20.8 +12.3 58 +23 +28 комфорт 1016.7 992.4 +15.2
ЮВ 4 10 км 6/4 1000 м
[Cu hum Ac trans]
+24.7 +12.2 46 +26 +33 жарко 1014.1 990.2
ЮВ 5 10 км 6/4
[Cu hum Ac trans]
+26.9 +13.8 44 +29 +31 жарко 1012.2 988.5
ЮЗ 2 10 км ясно +25.6 +13.8 48 +28 +28 жарко 1011.9 988.1 +27.4
З 2 10 км 6/5 1500 м
[Cb cap Ac trans]
+22.2 +15.2 65 +26 +26 душно 1012.3 988.3 +27.4
З 9 4000 м гроза, ливневой дождь 10/10 930 м
[Cb cap]
+20.0 +16.4 80 +22 +22 комфорт 1013.7 989.4
Ю 6 10 км гроза, ливневой дождь 10/9 1500 м
[Cb cap Ac und]
+18.6 +14.1 75 +19 +19 тепло 1013.2 988.9
З 3 10 км в посл. час гроза {ливн. дождь} 9/8 1500 м
[Cb cap Ac trans]
+21.0 +14.2 65 +24 +25 комфорт 1014.2 990.0 +18.4 12
СЗ 6 10 км гроза без осадков {ливн. дождь} 9/6 1500 м
[Cb cap Ac und]
+21.8 +12.5 55 +24 +25 комфорт 1014.6 990.5 +18.4 12
СЗ 3 10 км {гроза, ливн. дождь} 9/6 1500 м
[Cb cap Ac und Ci sp]
+24.0 +13.2 51 +26 +30 жарко 1013.9 990.0
СВ 7 10 км в посл. час гроза {ливн. дождь} 9/6 1500 м
[Cb cap Ac und Ci sp]
+23.0 +13.4 55 +26 +27 жарко 1013.0 989.0
З 5 10 км гроза, ливневой дождь 10/6 1000 м
[Cb cap Ac und]
+22.2 +14.0 60 +25 +25 комфорт 1013.7 989.6 +24.4 0.4
З 5 10 км слаб. ливневой дождь, в посл. час гроза 6/6 1000 м
[Cb cap Ac und]
+18.4 +13.3 72 +19 +19 по сезону 1016.1 991.7 +24.4 0.4
СЗ 7 10 км гроза, ливневой дождь 10/10 1380 м
[Cb cap]
+16.4 +13.6 84 +15 +15 прохладно 1019.4 994.7
ЮЗ 2 10 км гроза, ливневой дождь 10/8 1500 м
[Cb cap Ac und]
+15.3 +13.3 88 +15 +15 по сезону 1018.2 993.5
З 2 10 км в посл. час ливневой дождь {гроза} 10/6 1500 м
[Cb cap Ac und]
+16.6 +13.0 79 +17 +17 прохладно 1019.1 994.4 +15.0 11
С 2 10 км слаб. ливневой дождь {гроза} 10/8 1000 м
[Cb cap Ac und]
+16.9 +12.0 73 +17 +18 очень
холодно
1020.3 995.5 +15.0 11
З 6 10 км в посл. час ливневой дождь 10/9 660 м
[Cb cap Ac und]
+17.2 +15.0 87 +16 +17 очень
холодно
1019.9 995.3
СЗ 3 10 км {ливн. дождь} 10/6 1000 м
[Cb cap Ac und]
+20.8 +10.3 51 +23 +24 комфорт 1018.2 993.9
З 7 10 км слаб. ливневой дождь 10/8 1000 м
[Cb cap Ac und]
+15.2 +12.5 84 +13 +13 очень
холодно
1019.6 994.9 +21.0 2
СЗ 7 10 км слаб. ливневой дождь 10/8 1000 м
[Cb cap Ac und]
+17.4 +12.8 74 +16 +16 холодно 1020.4 995.7 +21.0 2
ЮЗ 4 7000 м {ливн. дождь} 9/6 1500 м
[Sc Ac und]
+17.4 +11.8 70 +17 +17 прохладно 1019.5 994.9
З 5 10 км {ливн. дождь} 10/3
[Sc Ac und]
+15.8 +11.4 75 +15 +15 прохладно 1020.4 995.6
СЗ 4 10 км 8/4 1500 м
[Sc Ac und]
+16.4 +10.8 69 +16 +16 холодно 1021.7 996.9 +15.0 0.7
З 3 10 км 5/5 1500 м
[Sc]
+20.4 +11.7 57 +23 +29 комфорт 1022.3 997.9 +15.0 0.7
СЗ 2 10 км 6/5 1000 м
[Sc Ac trans]
+23.0 +8.3 39 +24 +33 комфорт 1021.4 997.1
СВ 3 10 км 6/5 1000 м
[Sc Ac trans]
+24.4 +5.0 29 +24 +27 комфорт 1019.8 995.6
ЮВ 3 10 км 4/4 1000 м
[Sc]
+23.2 +8.4 39 +24 +24 комфорт 1019.1 994.9 +24.4
Ю 3 10 км ясно +19.9 +8.4 47 +21 +21 комфорт 1020.2 995.8 +24.4
Ю 4 10 км ясно +17.3 +8.8 57 +17 +17 прохладно 1018.5 993.9
ЮВ 2 10 км ясно +16.2 +6.2 51 +16 +16 по сезону 1015.4 990.7
Ю 2 10 км 9/3 1500 м
[Sc Ac trans Ci fib]
+16.3 +8.1 58 +16 +18 холодно 1015.7 991.1 +14.4
В 12 10 км 8/0
[Ac trans Ci fib]
+25.4 +5.2 27 +25 +25 комфорт 1013.0 989.1 +14.4
СВ 4 10 км 8/0
[Ac trans Ci fib]
+28.2 +4.3 22 +27 +35 жарко 1012.3 988.6
Ю 2 10 км 8/0
[Ci fib]
+30.2 +5.0 20 +28 +35 жарко 1011.6 988.1
В 4 10 км 6/0
[Ci fib]
+28.3 +8.7 29 +28 +28 жарко 1010.8 987.3 +31.2
Ю 2 10 км 4/0
[Ci fib]
+22.0 +14.9 64 +25 +25 комфорт 1011.5 987.5 +31.2
Ю 2 10 км ясно +19.2 +13.9 71 +21 +21 комфорт 1011.8 987.5
Ю 2 10 км ясно +18.0 +9.7 58 +19 +19 тепло 1011.2 986.8
н/о +22.1 +16 +16 прохладно 1011.4 987.3 +16.8
В 2 10 км ясно +27.9 +3.7 21 +26 +42 жарко 1010.7 987.1 +16.8
В 3 10 км ясно +31.5 +7.5 22 +30 +46 жарко 1008.6 985.4
В 3 10 км ясно +33.3 +4.6 17 +31 +38 жарко 1006.1 983.0
В 4 10 км ясно +30.6 +7.3 23 +29 +29 жарко 1004.8 981.6 +34.0
Местоположение метеостанции Ашхабад (город Ашхабад, Туркменистан): широта 37.92 долгота 58.33 высота над уровнем моря 312 м.
В архиве по умолчанию представлена погода в Ашхабаде за последнюю неделю. Архивные данные за месяц целиком и за предыдущие месяцы, начиная с января 2011 года, Вы можете получить, выбрав интересующий диапазон дат из раскрывающегося списка и нажав кнопку "Найти!".
*Определитесь, кто Вы:
Внимание! Время в таблицах - всемирное. Для получения местного времени необходимо прибавить поправку, которая равна 5 ч.
Смотрите также архив погоды в соседних городах и на ближайших метеорологических станциях:
Партнеры нашего сайта:      
Пояснения к столбцам:
  • Ветер - указаны скорость ветра в м/с - средняя за 10 мин, порывы в срок и между сроками (в фигурных скобках) и направление, откуда дует ветер: С - северный,
  • СВ - северо-восточный, В - восточный, ЮВ - юго-восточный, Ю - южный, ЮЗ - юго-западный, З - западный, СЗ - северо-западный.
  • Видимость - горизонтальная дальность видимости в метрах или километрах. При видимости от 1 до 10 км при отсутствии осадков обычно наблюдается дымка, при ухудшении видимости до 1 км и менее - туман. В сухую погоду видимость может ухудшаться дымом, пылью или мглою.
  • Явления - указаны атмосферные явления, наблюдавшиеся в срок или в последний час перед сроком; фигурными скобками обозначены явления, наблюдавшиеся между сроками (за 1-3 часа до срока); квадратными скобками обозначены град или гололедные отложения с указанием их диаметра в мм.
  • Облачность - указаны через наклонную черту общая и нижняя облачность в баллах и высота нижней границы облаков в метрах; квадратными скобками обозначены формы облаков: Ci - перистые, Cs - перисто-слоистые, Cc - перисто-кучевые, Ac - высококучевые, As - высокослоистые, Sc - слоисто-кучевые, Ns - слоисто-дождевые, Cu - кучевые, Cb - кучево-дождевые. Подробнее классификацию облаков см. в Атласе облаков (PDF).
  • T - Температура воздуха - температура, измеренная на высоте 2 м над землей.
  • Td - Температура точки росы - температура, при понижении до которой содержащийся в воздухе водяной пар достигнет насыщения.
  • f - Относительная влажность воздуха - влажноcть воздуха, измеренная на высоте 2 м над землей.
  • Te - Эффективная температура - температура, которую ощущает одетый по сезону человек в тени. Характеристика душности погоды. При расчете учитывается влияние влажности воздуха и скорости ветра на теплоощущения человека.
  • Tes - Эффективная температура на солнце - температура, которую ощущает человек, с поправкой на солнечный нагрев. Характеристика знойности погоды. Зависит от высоты солнца над горизонтом, облачности и скорости ветра. Ночью, в пасмурную погоду, а также при ветре 12 м/с и более поправка равна нулю.
  • P - Атмосферное давление - приведенное к уровню моря атмосферное давление.
  • Po - Атмосферное давление - измеренное на уровне метеостанции атмосферное давление.
  • Tmin - Минимальная температура - минимум температуры воздуха на высоте 2 м над землей.
  • Tmax - Максимальная температура - максимум температуры воздуха на высоте 2 м над землей.
  • R - Количество осадков - Количество выпавших осадков за период времени, мм. При наведении курсора мыши на число - период времени, за который выпало указанное количество осадков.
  • R24 - Количество осадков - Количество выпавших осадков за 24 часа, мм.
  • S - Снежный покров - Высота снежного покрова, см. При наведении курсора мыши на число - состояние снежного покрова и степень покрытия местности в баллах.